Change the Weather History Date:

Sunday, October 7, 2012

  Actual Average Record
Temperature  
Mean Temperature 53 °F 59 °F  
Max Temperature 59 °F 71 °F 85 °F (1951)
Min Temperature 47 °F 48 °F 27 °F (1935)
Degree Days  
Heating Degree Days 12 6  
Month to date heating degree days 23 39  
Since 1 July heating degree days 49 96  
Cooling Degree Days 0 1  
Month to date cooling degree days 4 7  
Year to date cooling degree days 1022 859  
Growing Degree Days 2 (Base 50)    
Moisture  
Dew Point 48 °F    
Average Humidity 85    
Maximum Humidity 93    
Minimum Humidity 76    
Precipitation  
Precipitation 0.23 in 0.09 in 1.71 in (1976)
Month to date precipitation 3.07 0.72  
Year to date precipitation 38.49 36.14  
Snow  
Snow 0.00 in 0.00 in 0.00 in (2002)
Month to date snowfall 0.0 0.0  
Since 1 July snowfall 0.0 0.0  
Since 1 September snowfall 0.0 0.0  
Snow Depth 0.00 in    
Sea Level Pressure  
Sea Level Pressure 30.04 in    
Wind  
Wind Speed 8 mph (North)    
Max Wind Speed 25 mph    
Max Gust Speed 33 mph    
Visibility 10 miles    
Events Rain , Thunderstorm    
T = Trace of Precipitation, MM = Missing Value Source: NWS Daily Summary

Daily Weather History Graph

Daily Weather History Graph

Search for Another Location

Airport or City:

Trip Planner

Search our weather history database for the weather conditions in past years. The results will help you decide how hot, cold, wet, or windy it might be!

Date:

Astronomy

Oct. 07, 2012 Rise Set
Actual Time 7:30 AM EDT 7:04 PM EDT
Civil Twilight 7:04 AM EDT 7:30 PM EDT
Nautical Twilight 6:35 AM EDT 7:59 PM EDT
Astronomical Twilight 6:05 AM EDT 8:29 PM EDT
Moon No Moon Rise 1:58 PM EDT (10/7)
Length of Visible Light 12h 25m
Length of Day
11h 34m
Waning Gibbous, 56% of the Moon is Illuminated
Oct 7
Waning Gibbous
Oct 8
Last Quarter
Oct 15
New
Oct 21
First Quarter
Oct 29
Full

Hourly Weather History & Observations

Time (EDT) Temp. Dew Point Humidity Pressure Visibility Wind Dir Wind Speed Gust Speed Precip Events Conditions
12:09 AM 55.4 °F 50.0 °F 82% 30.05 in 10.0 mi North 4.6 mph - N/A   Overcast
12:54 AM 54.0 °F 50.0 °F 86% 29.99 in 10.0 mi North 6.9 mph - N/A   Mostly Cloudy
1:14 AM 53.6 °F 50.0 °F 88% 30.03 in 10.0 mi NNW 6.9 mph - N/A   Mostly Cloudy
1:54 AM 54.0 °F 50.0 °F 86% 29.98 in 10.0 mi NNW 5.8 mph - N/A   Overcast
2:49 AM 53.6 °F 48.2 °F 82% 30.03 in 10.0 mi NNW 9.2 mph - N/A   Overcast
2:54 AM 54.0 °F 48.9 °F 83% 29.98 in 10.0 mi North 9.2 mph - N/A   Overcast
3:30 AM 53.6 °F 50.0 °F 88% 30.02 in 10.0 mi NNW 8.1 mph - N/A   Overcast
3:54 AM 54.0 °F 48.9 °F 83% 29.96 in 10.0 mi NNW 12.7 mph - N/A   Overcast
4:05 AM 53.6 °F 48.2 °F 82% 30.01 in 10.0 mi North 8.1 mph - N/A   Overcast
4:30 AM 53.6 °F 50.0 °F 88% 30.00 in 10.0 mi NNW 5.8 mph - N/A   Overcast
4:54 AM 54.0 °F 50.0 °F 86% 29.98 in 10.0 mi NNW 10.4 mph - 0.00 in Rain Light Rain
5:30 AM 53.6 °F 50.0 °F 88% 30.04 in 10.0 mi North 12.7 mph 24.2 mph 0.02 in Rain Light Rain
5:36 AM 51.8 °F 50.0 °F 94% 30.04 in 2.5 mi NNW 10.4 mph 19.6 mph 0.11 in Rain , Thunderstorm Heavy Thunderstorms and Rain
5:41 AM 51.8 °F 51.8 °F 100% 30.03 in 2.0 mi Calm Calm - 0.18 in Rain , Thunderstorm Heavy Thunderstorms and Rain
5:50 AM 51.8 °F 51.8 °F 100% 30.03 in 5.0 mi Variable 3.5 mph - 0.21 in Rain , Thunderstorm Light Thunderstorms and Rain
5:54 AM 52.0 °F 50.0 °F 93% 29.99 in 9.0 mi Calm Calm - 0.21 in Rain , Thunderstorm Light Thunderstorms and Rain
6:07 AM 51.8 °F 51.8 °F 100% 30.00 in 10.0 mi North 3.5 mph - 0.01 in Rain Light Rain
6:54 AM 51.1 °F 50.0 °F 96% 29.98 in 10.0 mi Calm Calm - 0.01 in   Partly Cloudy
7:19 AM 53.6 °F 51.8 °F 94% 30.03 in 10.0 mi North 4.6 mph - N/A   Mostly Cloudy
7:51 AM 51.8 °F 51.8 °F 100% 30.04 in 10.0 mi Calm Calm - N/A   Scattered Clouds
7:54 AM 53.1 °F 51.1 °F 93% 30.00 in 10.0 mi Calm Calm - N/A   Scattered Clouds
8:03 AM 53.6 °F 51.8 °F 94% 30.04 in 10.0 mi Calm Calm - N/A   Partly Cloudy
8:47 AM 53.6 °F 51.8 °F 94% 30.04 in 10.0 mi NNW 3.5 mph - N/A   Mostly Cloudy
8:54 AM 54.0 °F 52.0 °F 93% 30.01 in 10.0 mi North 4.6 mph - N/A   Overcast
9:02 AM 53.6 °F 51.8 °F 94% 30.05 in 10.0 mi North 3.5 mph - N/A   Overcast
9:54 AM 55.0 °F 52.0 °F 89% 30.03 in 10.0 mi NNW 5.8 mph - N/A   Overcast
10:18 AM 55.4 °F 51.8 °F 88% 30.07 in 10.0 mi North 4.6 mph - N/A   Overcast
10:42 AM 55.4 °F 51.8 °F 88% 30.07 in 10.0 mi North 8.1 mph - N/A   Overcast
10:54 AM 55.0 °F 52.0 °F 89% 30.04 in 10.0 mi North 5.8 mph - N/A   Overcast
11:14 AM 55.4 °F 51.8 °F 88% 30.07 in 10.0 mi North 3.5 mph - N/A   Overcast
11:24 AM 55.4 °F 51.8 °F 88% 30.06 in 10.0 mi North 3.5 mph - N/A   Overcast
11:54 AM 57.9 °F 54.0 °F 87% 30.03 in 10.0 mi Calm Calm - N/A   Overcast
12:54 PM 57.9 °F 54.0 °F 87% 30.01 in 10.0 mi Calm Calm - N/A   Overcast
1:54 PM 55.9 °F 52.0 °F 87% 30.02 in 10.0 mi North 13.8 mph - N/A   Overcast
2:54 PM 50.0 °F 46.9 °F 89% 30.05 in 8.0 mi North 17.3 mph 27.6 mph 0.01 in Rain Light Rain
3:10 PM 50.0 °F 46.4 °F 87% 30.08 in 10.0 mi North 20.7 mph 29.9 mph 0.00 in   Overcast
3:23 PM 50.0 °F 46.4 °F 87% 30.07 in 10.0 mi North 13.8 mph 24.2 mph 0.00 in   Overcast
3:54 PM 50.0 °F 45.0 °F 83% 30.06 in 10.0 mi North 15.0 mph 28.8 mph 0.00 in   Overcast
4:01 PM 50.0 °F 44.6 °F 82% 30.09 in 10.0 mi North 18.4 mph 26.5 mph N/A   Overcast
4:11 PM 50.0 °F 44.6 °F 82% 30.09 in 10.0 mi North 18.4 mph 25.3 mph N/A   Overcast
4:54 PM 48.9 °F 43.0 °F 80% 30.07 in 10.0 mi North 16.1 mph 27.6 mph N/A   Overcast
5:01 PM 50.0 °F 42.8 °F 76% 30.09 in 10.0 mi North 18.4 mph 24.2 mph N/A   Overcast
5:54 PM 48.9 °F 41.0 °F 74% 30.08 in 10.0 mi North 12.7 mph - N/A   Overcast
6:54 PM 48.9 °F 41.0 °F 74% 30.09 in 10.0 mi North 11.5 mph - N/A   Mostly Cloudy
7:54 PM 48.0 °F 41.0 °F 77% 30.10 in 10.0 mi NNW 12.7 mph - N/A   Overcast
8:19 PM 48.2 °F 41.0 °F 76% 30.13 in 10.0 mi NNW 12.7 mph - N/A   Scattered Clouds
8:54 PM 46.9 °F 39.9 °F 77% 30.11 in 10.0 mi North 9.2 mph - N/A   Clear
9:54 PM 46.9 °F 39.0 °F 74% 30.13 in 10.0 mi North 8.1 mph - N/A   Clear
10:54 PM 46.9 °F 39.9 °F 77% 30.13 in 10.0 mi Variable 6.9 mph - N/A   Overcast
11:54 PM 46.9 °F 39.9 °F 77% 30.12 in 10.0 mi North 6.9 mph - N/A   Overcast